| time (UTC) | temp F | wind direction | speed MPH | gust MPH | rain 1hr in | rain 24hr in | rain mn in | humidity % | barometer mb |
| 20260902043016 | 60 | 342 | 0.0 | 0.0 | 0.00 | 0.00 | 0.00 | 1 | 1016.9 |
| 20260902041514 | 60 | 360 | 0.0 | 0.0 | 0.00 | 0.01 | 0.00 | 1 | 1016.9 |
| 20260902040008 | 60 | 292 | 0.0 | 0.0 | 0.00 | 0.01 | 0.00 | 1 | 1016.9 |
| 20260902034510 | 60 | 324 | 0.0 | 0.0 | 0.00 | 0.01 | 0.00 | 1 | 1016.9 |
| 20260902033106 | 61 | 334 | 0.0 | 0.0 | 0.00 | 0.01 | 0.00 | 1 | 1016.9 |
| 20260902031554 | 61 | 343 | 0.0 | 0.0 | 0.00 | 0.01 | 0.00 | 1 | 1017.0 |
| 20260902030053 | 61 | 325 | 0.0 | 0.0 | 0.00 | 0.01 | 0.00 | 1 | 1017.1 |
| 20260902024549 | 61 | 329 | 0.0 | 0.0 | 0.00 | 0.01 | 0.00 | 1 | 1017.2 |
| 20260902023048 | 61 | 360 | 0.0 | 0.0 | 0.00 | 0.01 | 0.00 | 1 | 1017.3 |
| 20260902021540 | 61 | 331 | 0.0 | 0.0 | 0.00 | 0.05 | 0.00 | 1 | 1017.4 |
| 20260902020038 | 61 | 330 | 0.0 | 0.0 | 0.00 | 0.05 | 0.00 | 1 | 1017.4 |
| 20260902014537 | 61 | 336 | 0.0 | 0.0 | 0.00 | 0.05 | 0.00 | 1 | 1017.3 |
| 20260902013028 | 61 | 332 | 0.0 | 0.0 | 0.00 | 0.05 | 0.00 | 1 | 1017.4 |
| 20260902011525 | 61 | 350 | 0.0 | 0.0 | 0.00 | 0.15 | 0.00 | 1 | 1017.5 |
| 20260902010031 | 61 | 333 | 0.0 | 0.0 | 0.00 | 0.15 | 0.00 | 1 | 1017.5 |
| 20260902004518 | 61 | 319 | 0.0 | 0.0 | 0.00 | 0.15 | 0.00 | 1 | 1017.6 |
| 20260902003016 | 61 | 331 | 0.0 | 0.0 | 0.00 | 0.15 | 0.00 | 1 | 1017.7 |
| 20260902001511 | 60 | 335 | 0.0 | 0.0 | 0.00 | 0.15 | 0.00 | 1 | 1017.7 |
| 20260902000018 | 60 | 329 | 0.0 | 0.0 | 0.00 | 0.15 | 0.00 | 1 | 1017.7 |
| 20260901234504 | 60 | 331 | 0.0 | 0.0 | 0.00 | 0.15 | 0.00 | 1 | 1017.8 |
| 20260901233104 | 60 | 314 | 0.0 | 0.0 | 0.00 | 0.15 | 0.00 | 1 | 1017.8 |
| 20260901231557 | 59 | 325 | 0.0 | 0.0 | 0.00 | 0.15 | 0.00 | 1 | 1017.9 |
| 20260901230050 | 59 | 251 | 0.0 | 0.0 | 0.00 | 0.15 | 0.00 | 1 | 1017.9 |
| 20260901224546 | 58 | 246 | 0.0 | 0.0 | 0.00 | 0.15 | 0.00 | 1 | 1018.2 |
| 20260901223046 | 58 | 246 | 0.0 | 0.0 | 0.00 | 0.15 | 0.00 | 1 | 1018.2 |
| 20260901221538 | 59 | 246 | 0.0 | 0.0 | 0.00 | 0.25 | 0.00 | 1 | 1018.1 |
| 20260901214532 | 59 | 246 | 0.0 | 0.0 | 0.00 | 0.25 | 0.00 | 1 | 1018.2 |
| 20260901213029 | 59 | 246 | 0.0 | 0.0 | 0.00 | 0.25 | 0.00 | 1 | 1018.1 |
| 20260901211532 | 59 | 246 | 0.0 | 0.0 | 0.00 | 0.25 | 0.25 | 1 | 1018.1 |
| 20260901210019 | 60 | 246 | 0.0 | 0.0 | 0.00 | 0.25 | 0.25 | 1 | 1018.1 |
| 20260901204522 | 60 | 246 | 0.0 | 0.0 | 0.00 | 0.25 | 0.25 | 1 | 1018.6 |
| 20260901203018 | 60 | 246 | 0.0 | 0.0 | 0.00 | 0.25 | 0.25 | 1 | 1018.6 |
| 20260901201506 | 60 | 246 | 0.0 | 0.0 | 0.00 | 0.25 | 0.25 | 1 | 1018.6 |
| 20260901200009 | 60 | 245 | 0.0 | 0.0 | 0.00 | 0.25 | 0.25 | 1 | 1018.6 |
| 20260901194606 | 60 | 245 | 0.0 | 0.0 | 0.00 | 0.25 | 0.25 | 1 | 1018.5 |
| 20260901193107 | 61 | 245 | 0.0 | 0.0 | 0.00 | 0.25 | 0.25 | 1 | 1018.4 |
| 20260901191553 | 61 | 245 | 0.0 | 0.0 | 0.00 | 0.25 | 0.25 | 1 | 1018.2 |
| 20260901190052 | 62 | 245 | 0.0 | 0.0 | 0.00 | 0.25 | 0.25 | 1 | 1018.1 |
| 20260901184553 | 63 | 245 | 0.0 | 0.0 | 0.00 | 0.25 | 0.25 | 1 | 1018.0 |
| 20260901183043 | 64 | 245 | 0.0 | 0.0 | 0.00 | 0.25 | 0.25 | 1 | 1018.0 |
| 20260901181543 | 65 | 245 | 0.0 | 0.0 | 0.00 | 0.25 | 0.25 | 1 | 1018.1 |
| 20260901180050 | 66 | 245 | 0.0 | 0.0 | 0.00 | 0.25 | 0.25 | 1 | 1018.1 |
| 20260901174545 | 66 | 244 | 0.0 | 0.0 | 0.00 | 0.25 | 0.25 | 1 | 1018.2 |
| 20260901173041 | 67 | 200 | 0.0 | 0.0 | 0.00 | 0.25 | 0.25 | 1 | 1018.3 |
| 20260901171546 | 67 | 72 | 0.0 | 1.0 | 0.00 | 0.25 | 0.25 | 3 | 1018.4 |
| 20260901170051 | 68 | 223 | 0.0 | 0.0 | 0.00 | 0.25 | 0.25 | 1 | 1018.5 |
| 20260901164514 | 69 | 317 | 0.0 | 0.0 | 0.00 | 0.25 | 0.25 | 10 | 1018.4 |
| 20260901163021 | 70 | 296 | 0.0 | 0.0 | 0.00 | 0.25 | 0.25 | 21 | 1018.4 |
| 20260901161505 | 72 | 152 | 0.0 | 0.0 | 0.00 | 0.25 | 0.25 | 36 | 1018.3 |
| 20260901160004 | 72 | 350 | 0.0 | 0.0 | 0.00 | 0.25 | 0.25 | 42 | 1018.3 |
| 20260901154609 | 73 | 24 | 0.0 | 0.0 | 0.00 | 0.25 | 0.25 | 32 | 1018.3 |
| 20260901153054 | 73 | 306 | 0.0 | 0.0 | 0.00 | 0.25 | 0.25 | 36 | 1018.3 |
| 20260901151554 | 73 | 355 | 0.0 | 0.0 | 0.00 | 0.25 | 0.25 | 43 | 1018.2 |
| 20260901150100 | 74 | 332 | 0.0 | 0.0 | 0.00 | 0.25 | 0.25 | 43 | 1018.2 |
| 20260901144546 | 75 | 5 | 0.0 | 0.0 | 0.00 | 0.25 | 0.25 | 42 | 1018.2 |
| 20260901143040 | 74 | 42 | 0.0 | 0.0 | 0.00 | 0.25 | 0.25 | 39 | 1018.2 |
| 20260901141536 | 74 | 40 | 0.0 | 0.0 | 0.00 | 0.25 | 0.25 | 44 | 1018.2 |
| 20260901140032 | 74 | 11 | 0.0 | 0.0 | 0.00 | 0.25 | 0.25 | 42 | 1018.3 |
| 20260901134533 | 74 | 290 | 0.0 | 0.0 | 0.00 | 0.25 | 0.25 | 41 | 1018.3 |
| 20260901133024 | 74 | 330 | 0.0 | 1.0 | 0.00 | 0.25 | 0.25 | 43 | 1018.4 |
| 20260901131522 | 74 | 23 | 0.0 | 0.0 | 0.00 | 0.25 | 0.25 | 46 | 1018.3 |
| 20260901130018 | 75 | 349 | 0.0 | 0.0 | 0.00 | 0.25 | 0.25 | 45 | 1018.4 |
| 20260901124515 | 74 | 271 | 0.0 | 1.0 | 0.00 | 0.25 | 0.25 | 41 | 1018.3 |
| 20260901123026 | 73 | 80 | 0.0 | 0.0 | 0.00 | 0.25 | 0.25 | 34 | 1018.4 |
| 20260901121506 | 73 | 44 | 0.0 | 1.0 | 0.00 | 0.25 | 0.25 | 32 | 1018.5 |
| 20260901120023 | 73 | 54 | 0.0 | 0.0 | 0.00 | 0.25 | 0.25 | 25 | 1018.5 |
| 20260901114535 | 72 | 350 | 0.0 | 0.0 | 0.00 | 0.25 | 0.25 | 37 | 1018.5 |
| 20260901113021 | 73 | 188 | 0.0 | 0.0 | 0.00 | 0.25 | 0.25 | 33 | 1018.5 |
| 20260901111512 | 73 | 51 | 0.0 | 0.0 | 0.00 | 0.25 | 0.25 | 34 | 1018.5 |
| 20260901110049 | 72 | 48 | 0.0 | 0.0 | 0.00 | 0.25 | 0.25 | 21 | 1018.4 |
| 20260901104552 | 72 | 313 | 0.0 | 0.0 | 0.00 | 0.25 | 0.25 | 18 | 1018.4 |
| 20260901103040 | 71 | 22 | 0.0 | 1.0 | 0.00 | 0.25 | 0.25 | 1 | 1018.4 |
| 20260901101535 | 70 | 55 | 0.0 | 0.0 | 0.00 | 0.26 | 0.25 | 10 | 1018.3 |
| 20260901100031 | 69 | 311 | 0.0 | 0.0 | 0.00 | 0.26 | 0.25 | 1 | 1018.2 |
| 20260901094532 | 69 | 348 | 0.0 | 0.0 | 0.00 | 0.26 | 0.25 | 1 | 1018.2 |
| 20260901093023 | 68 | 9 | 0.0 | 3.0 | 0.00 | 0.26 | 0.25 | 1 | 1018.1 |
| 20260901091518 | 66 | 341 | 0.0 | 0.0 | 0.00 | 0.26 | 0.25 | 1 | 1018.0 |
| 20260901090016 | 65 | 261 | 0.0 | 0.0 | 0.00 | 0.26 | 0.25 | 1 | 1017.9 |
| 20260901084512 | 63 | 339 | 0.0 | 0.0 | 0.00 | 0.26 | 0.25 | 1 | 1017.8 |
| 20260901083007 | 62 | 207 | 0.0 | 0.0 | 0.00 | 0.26 | 0.25 | 1 | 1017.8 |
| 20260901081503 | 62 | 139 | 0.0 | 0.0 | 0.00 | 0.27 | 0.25 | 1 | 1017.6 |
| 20260901080101 | 61 | 337 | 0.0 | 0.0 | 0.00 | 0.27 | 0.25 | 1 | 1017.5 |
| 20260901074600 | 61 | 341 | 0.0 | 0.0 | 0.00 | 0.27 | 0.25 | 1 | 1017.2 |
| 20260901073052 | 61 | 346 | 0.0 | 0.0 | 0.00 | 0.27 | 0.25 | 1 | 1017.0 |
| 20260901071549 | 61 | 337 | 0.0 | 0.0 | 0.00 | 0.28 | 0.25 | 1 | 1016.9 |
| 20260901070046 | 60 | 337 | 0.0 | 0.0 | 0.00 | 0.28 | 0.25 | 1 | 1016.9 |
| 20260901064544 | 60 | 336 | 0.0 | 0.0 | 0.00 | 0.28 | 0.25 | 1 | 1016.7 |
| 20260901063044 | 60 | 337 | 0.0 | 0.0 | 0.00 | 0.28 | 0.25 | 1 | 1016.6 |
| 20260901061534 | 60 | 336 | 0.0 | 0.0 | 0.00 | 0.30 | 0.25 | 1 | 1016.5 |
| 20260901060030 | 60 | 336 | 0.0 | 0.0 | 0.00 | 0.30 | 0.25 | 1 | 1016.3 |
| 20260901054525 | 61 | 336 | 0.0 | 0.0 | 0.00 | 0.30 | 0.25 | 1 | 1016.2 |
| 20260901053021 | 61 | 336 | 0.0 | 0.0 | 0.00 | 0.30 | 0.25 | 1 | 1016.0 |
| 20260901051516 | 61 | 336 | 0.0 | 0.0 | 0.00 | 0.43 | 0.25 | 1 | 1016.0 |
| 20260901050015 | 61 | 336 | 0.0 | 0.0 | 0.01 | 0.43 | 0.25 | 1 | 1015.7 |
| 20260901044516 | 61 | 336 | 0.0 | 0.0 | 0.01 | 0.43 | 0.25 | 1 | 1015.6 |